[[{"header":{"parameterUnit":"m.s-1","parameterCategory":1,"la1":30.2991,"la2":30.254,"lo1":-89.0895,"lo2":-89.0444,"dy":0.0017,"dx":0.0017,"nx":28,"ny":28,"refTime":"2025-03-03T09:00:00:Z","depth":0,"parameterNumber":2,"parameterNumberName":"U-component_of_WINDS"},"data":[0,0,0,0,0,0,0,0,0,0,0,0,0,0,0,0,0,0,0,0,0,0,0,0,0,0,0,0,0,0,0,0,0,0,0,0,0,0,0,0,0,0,0,0,0,0,0,0,0,0,0,0,0,0,0,0,0,0,-4.1497,-4.1498,0,-4.1618,-4.1619,-4.1621,-4.1651,-4.1651,-4.165,-4.1649,-4.1774,-4.1778,-4.1782,0,0,0,0,0,0,0,0,0,0,0,0,0,-4.1294,-4.1298,-4.1497,-4.1499,-4.15,-4.1618,-4.1619,-4.1621,-4.1652,-4.1651,-4.165,-4.1649,-4.1772,-4.1777,-4.1782,0,0,0,0,0,0,0,0,0,0,0,0,0,-4.1396,-4.1299,-4.1497,-4.1529,-4.1534,-4.1617,-4.1619,-4.1621,-4.1652,-4.1651,-4.1649,-4.1648,-4.1771,-4.1777,-4.1783,-4.1843,0,0,-4.1801,-4.1804,0,0,0,0,0,0,0,0,-4.139,-4.1403,-4.1523,-4.1527,-4.1532,-4.1618,-4.1594,-4.1696,-4.1652,-4.1607,-4.1649,-4.1648,-4.1723,-4.1733,-4.1758,-4.1849,-4.1854,-4.1802,-4.1805,-4.1808,-4.181,0,0,0,0,0,0,0,-4.1383,-4.1398,-4.1545,-4.1525,-4.153,-4.1539,-4.1552,-4.1613,-4.167,-4.1611,-4.1613,-4.1627,-4.1725,-4.1752,-4.1761,-4.1856,-4.1802,-4.1807,-4.1811,-4.1813,-4.2003,-4.2004,0,0,0,0,0,0,-4.137,-4.1392,-4.1541,-4.1549,-4.1457,-4.1543,-4.1558,-4.1592,-4.1669,-4.168,-4.1628,-4.1628,-4.1742,-4.1754,-4.1766,-4.1841,-4.1808,-4.1814,-4.1817,-4.2001,-4.2003,-4.2004,0,0,0,0,0,0,-4.1365,-4.1383,-4.1536,-4.1471,-4.1491,-4.1548,-4.1586,-4.1595,-4.1622,-4.1682,-4.1693,-4.1645,-4.1742,-4.1757,-4.1824,-4.1846,-4.1816,-4.1822,-4.2,-4.2002,-4.2004,-4.1992,0,0,0,0,0,0,-4.1359,-4.1381,-4.1404,-4.1471,-4.1494,-4.1591,-4.1587,-4.1598,-4.1632,-4.1633,-4.1701,-4.1711,-4.1742,-4.1814,-4.183,-4.1854,-4.1826,-4.1998,-4.2001,-4.2003,-4.1991,-4.1994,-4.1996,0,0,0,0,0,-4.1352,-4.1396,-4.1405,-4.1423,-4.1524,-4.1592,-4.1606,-4.164,-4.1634,-4.1657,-4.1697,-4.1709,-4.1841,-4.1821,-4.1838,-4.1865,-4.1996,-4.2,-4.2003,-4.199,-4.1993,-4.1996,0,0,0,0,0,0,-4.133,-4.1405,-4.1416,-4.1483,-4.1531,-4.1597,-4.1628,-4.1643,-4.1694,-4.1693,-4.1735,-4.175,-4.1813,-4.1846,-4.1822,-4.1927,-4.1919,-4.1926,-4.1903,-4.1907,-4.191,-4.19,-4.1831,0,0,0,0,0,-4.1333,-4.1382,-4.1445,-4.1498,-4.1522,-4.1571,-4.1602,-4.1625,-4.1676,-4.1697,-4.1741,-4.1791,-4.1844,-4.1877,-4.193,-4.1997,-4.2012,-4.2024,-4.2026,-4.2028,-4.2033,-4.2071,-4.2077,-4.2015,-4.2015,-4.2015,0,0,-4.1339,-4.1387,-4.1415,-4.1495,-4.1535,-4.1585,-4.1588,-4.164,-4.1678,-4.1705,-4.177,-4.1804,-4.1863,-4.1929,-4.1961,-4.1959,-4.2054,-4.2032,-4.2033,-4.2037,-4.2075,-4.2081,-4.2086,-4.2017,-4.2017,-4.2016,0,0,-4.1376,-4.1417,-4.1466,-4.1506,-4.1566,-4.1599,-4.1611,-4.1675,-4.1699,-4.1765,-4.1786,-4.1832,-4.1922,-4.1963,-4.1996,-4.205,-4.2063,-4.2066,-4.2079,-4.2116,-4.2121,-4.2125,-4.2144,-4.2151,-4.2071,-4.2071,-4.2071,0,-4.1377,-4.1452,-4.1489,-4.1541,-4.1575,-4.1603,-4.1652,-4.169,-4.1764,-4.1788,-4.1784,-4.1898,-4.194,-4.2016,-4.203,-4.2055,-4.207,-4.2057,-4.2117,-4.2122,-4.2127,-4.2145,-4.2152,-4.2071,-4.2071,-4.2071,-4.2071,0,-4.1449,-4.1502,-4.1534,-4.1605,-4.1643,-4.1694,-4.1739,-4.1774,-4.1794,-4.1827,-4.1894,-4.1945,-4.2008,-4.2028,-4.2048,-4.2109,-4.2105,-4.2109,-4.2101,-4.2132,-4.215,-4.2157,-4.2071,-4.2071,-4.2071,-4.2071,0,0,-4.1474,-4.1566,-4.1577,-4.1609,-4.1679,-4.172,-4.1772,-4.1834,-4.1863,-4.1914,-4.1959,-4.2035,-4.2039,-4.2076,-4.2102,-4.2134,-4.2173,-4.2134,-4.2136,-4.2139,-4.2243,-4.2238,-4.2246,-4.2183,-4.2185,-4.2186,-4.2238,0,-4.1519,-4.1612,-4.1648,-4.1724,-4.1773,-4.18,-4.1846,-4.1894,-4.1927,-4.1974,-4.2011,-4.2064,-4.2065,-4.2088,-4.2121,-4.2161,-4.2195,-4.2158,-4.2225,-4.2227,-4.2208,-4.2256,-4.2251,-4.2297,-4.2245,-4.2246,-4.2247,0,-4.1583,-4.1635,-4.1716,-4.178,-4.1802,-4.1842,-4.1901,-4.1946,-4.2001,-4.2023,-4.2065,-4.2088,-4.2145,-4.2135,-4.2213,-4.2188,-4.2218,-4.2242,-4.2244,-4.2251,-4.2238,-4.2262,-4.2313,-4.2319,-4.2259,-4.2258,-4.2257,0,-4.1592,-4.1682,-4.1742,-4.177,-4.1846,-4.1874,-4.1907,-4.1961,-4.1996,-4.2048,-4.2071,-4.213,-4.2162,-4.2207,-4.2246,-4.2235,-4.2321,-4.2314,-4.234,-4.2339,-4.2356,-4.2354,-4.2411,-4.2377,-4.2377,-4.2377,-4.2377,0,-4.1638,-4.1687,-4.1747,-4.1784,-4.184,-4.1881,-4.1935,-4.197,-4.2018,-4.2063,-4.2091,-4.2132,-4.2181,-4.223,-4.2261,-4.2321,-4.2335,-4.2355,-4.2362,-4.2352,-4.2349,-4.2371,-4.2368,-4.2379,-4.2378,-4.2378,-4.2378,0,-4.1657,-4.17,-4.1767,-4.1834,-4.1852,-4.189,-4.1947,-4.1985,-4.2019,-4.2076,-4.2091,-4.2146,-4.2204,-4.2248,-4.2323,-4.2344,-4.2408,-4.2417,-4.2389,-4.2393,-4.2416,-4.2413,-4.2488,-4.25,-4.2459,-4.2459,-4.246,0,-4.1682,-4.172,-4.1791,-4.1823,-4.1856,-4.1907,-4.1943,-4.1985,-4.2021,-4.2088,-4.2117,-4.2177,-4.2227,-4.2319,-4.2366,-4.2424,-4.2434,-4.2456,-4.2442,-4.2431,-4.2433,-4.243,-4.2434,-4.2457,-4.2457,-4.2458,-4.2458,0,-4.1723,-4.1743,-4.1793,-4.1851,-4.1893,-4.1941,-4.1989,-4.2014,-4.2065,-4.2104,-4.2164,-4.2203,-4.228,-4.234,-4.2403,-4.2438,-4.2456,-4.2462,-4.2471,-4.246,-4.2442,-4.2451,-4.2393,-4.246,-4.2459,-4.2459,-4.2459,-4.2459,-4.1746,-4.1781,-4.1836,-4.1892,-4.1933,-4.1977,-4.2016,-4.2055,-4.2106,-4.2171,-4.2194,-4.2255,-4.2311,-4.2398,-4.2433,-4.2483,-4.2483,-4.2496,-4.2499,-4.2501,-4.25,-4.2435,-4.2495,-4.2495,-4.2495,-4.2495,-4.2495,0,-4.1788,-4.1825,-4.1875,-4.1942,-4.1986,-4.2,-4.2054,-4.209,-4.2143,-4.2194,-4.2242,-4.2311,-4.237,-4.2421,-4.2482,-4.2512,-4.2522,-4.2526,-4.2524,-4.2531,-4.2497,-4.2483,-4.2517,-4.2517,-4.2517,-4.2517,-4.2517,-4.2517,-4.1814,-4.1874,-4.19,-4.1981,-4.2019,-4.2079,-4.2109,-4.215,-4.219,-4.2266,-4.2314,-4.2347,-4.2399,-4.2463,-4.2518,-4.2532,-4.2552,-4.2554,-4.257,-4.2537,-4.2534,-4.2531,-4.2518,-4.2559,-4.2559,-4.26,-4.2601,-4.2601]},{"header":{"parameterUnit":"m.s-1","parameterCategory":1,"la1":30.2991,"la2":30.254,"lo1":-89.0895,"lo2":-89.0444,"dy":0.0017,"dx":0.0017,"nx":28,"ny":28,"refTime":"2025-03-03T09:00:00:Z","depth":0,"parameterNumber":3,"parameterNumberName":"V-component_of_WINDS"},"data":[0,0,0,0,0,0,0,0,0,0,0,0,0,0,0,0,0,0,0,0,0,0,0,0,0,0,0,0,0,0,0,0,0,0,0,0,0,0,0,0,0,0,0,0,0,0,0,0,0,0,0,0,0,0,0,0,0,0,6.1546,6.1549,0,6.1757,6.176,6.1762,6.1821,6.182,6.1819,6.1818,6.2028,6.2035,6.2041,0,0,0,0,0,0,0,0,0,0,0,0,0,6.1192,6.1198,6.1546,6.1549,6.1551,6.1757,6.176,6.1763,6.1822,6.182,6.1819,6.1818,6.2026,6.2034,6.2042,0,0,0,0,0,0,0,0,0,0,0,0,0,6.1368,6.12,6.1546,6.1606,6.1613,6.1756,6.176,6.1764,6.1822,6.182,6.1818,6.1817,6.2023,6.2033,6.2043,6.214,0,0,6.2074,6.2078,0,0,0,0,0,0,0,0,6.1358,6.1381,6.1594,6.1602,6.1611,6.1761,6.1712,6.1889,6.1822,6.1743,6.1818,6.1816,6.194,6.1957,6.2,6.215,6.2159,6.2075,6.2081,6.2085,6.2088,0,0,0,0,0,0,0,6.1346,6.1373,6.163,6.1597,6.1607,6.1621,6.1645,6.1746,6.1848,6.1749,6.1754,6.1779,6.1945,6.1991,6.2006,6.2162,6.2074,6.2083,6.2089,6.2093,6.2405,6.2407,0,0,0,0,0,0,6.1324,6.1362,6.1623,6.1636,6.1478,6.1629,6.1655,6.1715,6.1848,6.1866,6.178,6.1781,6.1974,6.1994,6.2013,6.2139,6.2085,6.2094,6.21,6.2403,6.2405,6.2408,0,0,0,0,0,0,6.1316,6.1347,6.1614,6.1501,6.1536,6.1637,6.1704,6.172,6.1766,6.1871,6.1889,6.1808,6.1974,6.1999,6.2109,6.2147,6.2099,6.2108,6.24,6.2404,6.2407,6.2387,0,0,0,0,0,0,6.1306,6.1344,6.1382,6.1501,6.1542,6.1707,6.1706,6.1725,6.1784,6.1787,6.1902,6.192,6.1974,6.2094,6.2119,6.216,6.2116,6.2397,6.2402,6.2406,6.2385,6.239,6.2394,0,0,0,0,0,6.1293,6.1366,6.1383,6.1414,6.1592,6.1709,6.1733,6.1796,6.1786,6.1826,6.1894,6.1916,6.2138,6.2105,6.2134,6.2177,6.2395,6.24,6.2405,6.2383,6.2389,6.2394,0,0,0,0,0,0,6.1245,6.1382,6.1403,6.1517,6.1602,6.1719,6.1771,6.1799,6.1886,6.1885,6.1958,6.1983,6.2089,6.2144,6.2104,6.228,6.2267,6.2278,6.224,6.2247,6.2251,6.2236,6.2124,0,0,0,0,0,6.1248,6.1334,6.1448,6.1538,6.1579,6.1668,6.1721,6.1763,6.1853,6.1888,6.1964,6.2048,6.2138,6.2195,6.2283,6.2393,6.242,6.2438,6.2442,6.2445,6.2454,6.252,6.253,6.2425,6.2425,6.2425,0,0,6.1255,6.134,6.1389,6.153,6.1601,6.1688,6.1697,6.1787,6.1853,6.1901,6.2011,6.207,6.2169,6.2281,6.2334,6.233,6.2489,6.2451,6.2453,6.2461,6.2526,6.2536,6.2545,6.2428,6.2427,6.2427,0,0,6.1312,6.1384,6.1469,6.154,6.1648,6.1707,6.1727,6.1842,6.1884,6.1996,6.2035,6.2113,6.2264,6.2335,6.239,6.2478,6.2503,6.2504,6.2527,6.259,6.2599,6.2606,6.264,6.2651,6.2513,6.2513,6.2513,0,6.1306,6.144,6.1507,6.1598,6.166,6.1711,6.1797,6.1862,6.1992,6.2033,6.2028,6.2222,6.2292,6.2423,6.2445,6.2488,6.2514,6.2492,6.2592,6.2601,6.2609,6.2642,6.2654,6.2513,6.2513,6.2513,6.2513,0,6.1429,6.1521,6.1576,6.1704,6.1772,6.1859,6.194,6.2001,6.2037,6.2097,6.2211,6.2298,6.2406,6.244,6.2474,6.2577,6.2572,6.2578,6.2567,6.2617,6.265,6.2663,6.2512,6.2512,6.2512,6.2512,0,0,6.146,6.1627,6.1647,6.1707,6.1831,6.1903,6.1994,6.2102,6.2154,6.2242,6.2321,6.245,6.2458,6.2521,6.2565,6.262,6.2688,6.2621,6.2624,6.2632,6.2809,6.2805,6.2818,6.2705,6.2708,6.271,6.2802,0,6.1534,6.1701,6.1766,6.1901,6.1988,6.2039,6.2119,6.2203,6.2262,6.2344,6.2408,6.25,6.2502,6.2541,6.2598,6.2668,6.2725,6.2662,6.2779,6.2783,6.2755,6.2835,6.283,6.2912,6.2814,6.2817,6.2818,0,6.1643,6.1736,6.1881,6.1998,6.2037,6.2107,6.2214,6.2292,6.2389,6.2428,6.2501,6.2542,6.264,6.2622,6.2758,6.2713,6.2765,6.2807,6.2812,6.2826,6.2804,6.2853,6.294,6.2953,6.2838,6.2837,6.2835,0,6.1655,6.1816,6.1925,6.1974,6.2113,6.2162,6.2221,6.2318,6.238,6.2472,6.2514,6.2615,6.2671,6.2748,6.2816,6.2796,6.2946,6.2933,6.2982,6.2981,6.3012,6.3009,6.311,6.3042,6.3042,6.3042,6.3041,0,6.1732,6.1819,6.1933,6.1999,6.2099,6.2173,6.227,6.2332,6.2418,6.2498,6.2547,6.2621,6.2705,6.279,6.2843,6.2949,6.2973,6.3007,6.3021,6.3004,6.3,6.304,6.3037,6.3045,6.3044,6.3044,6.3043,0,6.1762,6.1842,6.1964,6.2087,6.212,6.2188,6.2293,6.236,6.2421,6.2522,6.255,6.2647,6.2749,6.2825,6.2956,6.2992,6.3106,6.3118,6.3074,6.3081,6.3127,6.3122,6.3258,6.3281,6.3195,6.3196,6.3197,0,6.1807,6.1876,6.2008,6.2066,6.2127,6.2219,6.2285,6.2361,6.2426,6.2545,6.2598,6.2705,6.2794,6.2956,6.3037,6.3139,6.3155,6.3196,6.317,6.3153,6.3159,6.3155,6.3163,6.3199,6.32,6.32,6.3201,0,6.188,6.1917,6.2009,6.2117,6.2194,6.2282,6.237,6.2415,6.2507,6.2578,6.2686,6.2755,6.2892,6.2998,6.3109,6.3169,6.3201,6.3208,6.3226,6.321,6.3183,6.3201,6.3086,6.3205,6.3204,6.3204,6.3204,6.3204,6.1921,6.1986,6.209,6.2193,6.2268,6.235,6.2421,6.2493,6.2585,6.2704,6.2743,6.2854,6.2953,6.3105,6.3167,6.3256,6.3255,6.3278,6.3285,6.329,6.3291,6.3168,6.3275,6.3275,6.3275,6.3275,6.3275,0,6.1998,6.2069,6.2162,6.2287,6.2368,6.2393,6.2493,6.2559,6.2658,6.2748,6.2837,6.2961,6.3065,6.3156,6.3263,6.3317,6.3334,6.3343,6.334,6.3354,6.3284,6.326,6.3327,6.3327,6.3327,6.3327,6.3327,6.3327,6.2048,6.2161,6.2211,6.2362,6.2431,6.2543,6.2599,6.2675,6.2748,6.2886,6.2974,6.3034,6.3125,6.324,6.3337,6.3361,6.3399,6.3405,6.3432,6.3365,6.3359,6.3353,6.3331,6.3412,6.3412,6.3496,6.3496,6.3497]}]]